Time,TemperatureF,DewpointF,PressureIn,WindDirection,WindDirectionDegrees,WindSpeedMPH,WindSpeedGustMPH,Humidity,HourlyPrecipIn,Conditions,Clouds,dailyrainin,SoftwareType,DateUTC
2013-03-04 00:00:00,42.4,25.8,28.36,NNE,15,0.0,23.3,95,0.00,,,-99.99,HOBO +U30 +Weather +,2013-03-04 08:00:00,
2013-03-04 00:15:00,42.3,25.4,28.36,NNE,15,0.0,25.7,95,0.00,,,-99.99,HOBO +U30 +Weather +,2013-03-04 08:15:00,
2013-03-04 00:30:00,42.2,25.2,28.36,NNE,15,0.0,22.8,95,0.00,,,-99.99,HOBO +U30 +Weather +,2013-03-04 08:30:00,
2013-03-04 00:45:00,42.0,25.1,28.36,NNE,15,0.0,26.2,95,0.00,,,-99.99,HOBO +U30 +Weather +,2013-03-04 08:45:00,
2013-03-04 01:00:00,41.9,25.2,28.35,NNE,17,0.0,22.4,95,0.00,,,-99.99,HOBO +U30 +Weather +,2013-03-04 09:00:00,
2013-03-04 01:15:00,41.7,24.9,28.35,NNE,17,0.0,0.0,95,0.00,,,-99.99,HOBO +U30 +Weather +,2013-03-04 09:15:00,
2013-03-04 01:30:00,41.6,25.0,28.35,NNE,17,0.0,0.0,96,0.00,,,-99.99,HOBO +U30 +Weather +,2013-03-04 09:30:00,
2013-03-04 01:45:00,41.5,24.8,28.35,NNE,17,0.0,0.0,95,0.00,,,-99.99,HOBO +U30 +Weather +,2013-03-04 09:45:00,
2013-03-04 02:00:00,41.3,24.0,28.34,NNE,17,0.0,0.0,95,0.00,,,-99.99,HOBO +U30 +Weather +,2013-03-04 10:00:00,
2013-03-04 02:15:00,41.2,24.3,28.34,NNE,17,0.0,0.0,95,0.00,,,-99.99,HOBO +U30 +Weather +,2013-03-04 10:15:00,
2013-03-04 02:30:00,41.1,24.4,28.33,NNE,17,0.0,0.0,95,0.00,,,-99.99,HOBO +U30 +Weather +,2013-03-04 10:30:00,
2013-03-04 02:45:00,40.9,24.2,28.33,NNE,17,0.0,0.0,95,0.00,,,-99.99,HOBO +U30 +Weather +,2013-03-04 10:45:00,
2013-03-04 03:00:00,40.8,24.0,28.32,NNE,17,0.4,2.0,95,0.00,,,-99.99,HOBO +U30 +Weather +,2013-03-04 11:00:00,
2013-03-04 03:15:00,40.7,23.7,28.32,NNE,17,0.0,0.0,95,0.00,,,-99.99,HOBO +U30 +Weather +,2013-03-04 11:15:00,
2013-03-04 03:30:00,40.6,23.8,28.32,NNE,17,0.0,0.0,95,0.00,,,-99.99,HOBO +U30 +Weather +,2013-03-04 11:30:00,
2013-03-04 03:45:00,40.4,23.5,28.32,NNE,17,0.4,2.0,95,0.00,,,-99.99,HOBO +U30 +Weather +,2013-03-04 11:45:00,
2013-03-04 04:00:00,40.4,23.7,28.32,NNE,17,0.0,0.0,96,0.00,,,-99.99,HOBO +U30 +Weather +,2013-03-04 12:00:00,
2013-03-04 04:15:00,40.2,24.0,28.32,NNE,17,0.0,0.0,95,0.00,,,-99.99,HOBO +U30 +Weather +,2013-03-04 12:15:00,
2013-03-04 04:30:00,40.1,23.4,28.31,NNE,17,0.0,0.0,95,0.00,,,-99.99,HOBO +U30 +Weather +,2013-03-04 12:30:00,
2013-03-04 04:45:00,40.0,23.7,28.31,NNE,14,0.0,0.0,95,0.00,,,-99.99,HOBO +U30 +Weather +,2013-03-04 12:45:00,
2013-03-04 05:00:00,39.9,23.2,28.32,North,3,0.0,1.3,95,0.00,,,-99.99,HOBO +U30 +Weather +,2013-03-04 13:00:00,
2013-03-04 05:15:00,39.7,23.1,28.31,NW,324,0.4,2.0,95,0.00,,,-99.99,HOBO +U30 +Weather +,2013-03-04 13:15:00,
2013-03-04 05:30:00,39.7,23.6,28.31,North,4,0.4,1.6,95,0.00,,,-99.99,HOBO +U30 +Weather +,2013-03-04 13:30:00,
2013-03-04 05:45:00,39.5,23.7,28.30,NNE,20,0.0,0.0,95,0.00,,,-99.99,HOBO +U30 +Weather +,2013-03-04 13:45:00,
2013-03-04 06:00:00,39.5,23.3,28.30,NNE,20,0.0,0.0,95,0.00,,,-99.99,HOBO +U30 +Weather +,2013-03-04 14:00:00,
2013-03-04 06:15:00,39.3,23.4,28.29,NNE,20,0.0,0.0,95,0.00,,,-99.99,HOBO +U30 +Weather +,2013-03-04 14:15:00,
2013-03-04 06:30:00,39.2,22.7,28.29,East,87,0.0,2.9,94,0.00,,,-99.99,HOBO +U30 +Weather +,2013-03-04 14:30:00,
2013-03-04 06:45:00,39.1,23.3,28.28,North,355,0.9,22.8,95,0.00,,,-99.99,HOBO +U30 +Weather +,2013-03-04 14:45:00,
2013-03-04 07:00:00,39.0,23.1,28.28,North,352,0.4,1.6,95,0.00,,,-99.99,HOBO +U30 +Weather +,2013-03-04 15:00:00,
2013-03-04 07:15:00,38.9,25.7,28.28,ENE,72,1.3,6.7,86,0.00,,,-99.99,HOBO +U30 +Weather +,2013-03-04 15:15:00,
2013-03-04 07:30:00,38.8,25.9,28.28,ESE,105,2.9,17.9,79,0.00,,,-99.99,HOBO +U30 +Weather +,2013-03-04 15:30:00,
2013-03-04 07:45:00,38.8,26.3,28.28,ESE,121,4.3,23.3,76,0.00,,,-99.99,HOBO +U30 +Weather +,2013-03-04 15:45:00,
2013-03-04 08:00:00,38.7,26.1,28.28,SE,132,2.5,7.8,76,0.00,,,-99.99,HOBO +U30 +Weather +,2013-03-04 16:00:00,
2013-03-04 08:15:00,38.6,25.7,28.28,ESE,115,3.8,28.2,67,0.00,,,-99.99,HOBO +U30 +Weather +,2013-03-04 16:15:00,
2013-03-04 08:30:00,38.5,25.8,28.27,SE,133,4.3,29.5,64,0.00,,,-99.99,HOBO +U30 +Weather +,2013-03-04 16:30:00,
2013-03-04 08:45:00,38.4,25.4,28.27,SE,132,4.5,25.3,60,0.00,,,-99.99,HOBO +U30 +Weather +,2013-03-04 16:45:00,
2013-03-04 09:00:00,38.4,25.2,28.26,SE,126,4.5,22.8,58,0.00,,,-99.99,HOBO +U30 +Weather +,2013-03-04 17:00:00,
2013-03-04 09:15:00,38.3,25.1,28.25,ESE,118,5.4,19.0,57,0.00,,,-99.99,HOBO +U30 +Weather +,2013-03-04 17:15:00,
2013-03-04 09:30:00,38.3,25.2,28.26,SE,138,4.9,27.1,53,0.00,,,-99.99,HOBO +U30 +Weather +,2013-03-04 17:30:00,
2013-03-04 09:45:00,38.3,24.6,28.25,SE,139,7.2,28.6,50,0.00,,,-99.99,HOBO +U30 +Weather +,2013-03-04 17:45:00,
2013-03-04 10:00:00,38.3,25.5,28.25,SE,143,7.2,14.5,49,0.00,,,-99.99,HOBO +U30 +Weather +,2013-03-04 18:00:00,
2013-03-04 10:15:00,38.3,23.6,28.24,SE,142,9.6,18.6,46,0.00,,,-99.99,HOBO +U30 +Weather +,2013-03-04 18:15:00,
2013-03-04 10:30:00,38.4,24.4,28.24,SE,131,8.3,24.4,45,0.00,,,-99.99,HOBO +U30 +Weather +,2013-03-04 18:30:00,
2013-03-04 10:45:00,38.4,23.7,28.25,SE,124,7.4,26.2,43,0.00,,,-99.99,HOBO +U30 +Weather +,2013-03-04 18:45:00,
2013-03-04 11:00:00,38.5,23.5,28.23,SE,133,9.2,20.4,42,0.00,,,-99.99,HOBO +U30 +Weather +,2013-03-04 19:00:00,
2013-03-04 11:15:00,38.7,24.6,28.23,SE,128,8.3,17.9,43,0.00,,,-99.99,HOBO +U30 +Weather +,2013-03-04 19:15:00,
2013-03-04 11:30:00,38.8,22.8,28.22,SE,129,10.3,20.4,40,0.00,,,-99.99,HOBO +U30 +Weather +,2013-03-04 19:30:00,
2013-03-04 11:45:00,39.0,22.3,28.21,SE,128,7.8,20.8,38,0.00,,,-99.99,HOBO +U30 +Weather +,2013-03-04 19:45:00,
2013-03-04 12:30:00,39.7,22.4,28.19,SE,126,8.3,19.5,37,0.00,,,-99.99,HOBO +U30 +Weather +,2013-03-04 20:30:00,
2013-03-04 12:45:00,40.0,23.8,28.19,SE,135,8.3,28.6,37,0.00,,,-99.99,HOBO +U30 +Weather +,2013-03-04 20:45:00,
2013-03-04 13:00:00,40.3,23.0,28.18,ESE,119,7.2,15.9,35,0.00,,,-99.99,HOBO +U30 +Weather +,2013-03-04 21:00:00,
2013-03-04 13:15:00,40.6,23.6,28.17,SE,135,7.8,21.5,35,0.00,,,-99.99,HOBO +U30 +Weather +,2013-03-04 21:15:00,
2013-03-04 13:30:00,40.9,23.2,28.16,SE,139,7.8,16.6,34,0.00,,,-99.99,HOBO +U30 +Weather +,2013-03-04 21:30:00,
2013-03-04 13:45:00,41.2,22.0,28.16,SE,128,7.8,26.6,33,0.00,,,-99.99,HOBO +U30 +Weather +,2013-03-04 21:45:00,
2013-03-04 14:00:00,41.5,20.8,28.16,SE,131,8.7,24.2,31,0.00,,,-99.99,HOBO +U30 +Weather +,2013-03-04 22:00:00,
2013-03-04 14:15:00,41.8,21.0,28.15,SE,131,7.2,15.9,31,0.00,,,-99.99,HOBO +U30 +Weather +,2013-03-04 22:15:00,
2013-03-04 14:30:00,42.1,20.9,28.15,SE,129,7.2,12.1,31,0.00,,,-99.99,HOBO +U30 +Weather +,2013-03-04 22:30:00,
2013-03-04 14:45:00,42.4,22.1,28.14,SE,133,7.2,15.0,32,0.00,,,-99.99,HOBO +U30 +Weather +,2013-03-04 22:45:00,
2013-03-04 15:00:00,42.7,21.5,28.12,SE,133,8.7,17.0,32,0.00,,,-99.99,HOBO +U30 +Weather +,2013-03-04 23:00:00,
2013-03-04 15:15:00,42.9,20.9,28.13,SE,136,7.2,15.4,31,0.00,,,-99.99,HOBO +U30 +Weather +,2013-03-04 23:15:00,
2013-03-04 15:30:00,43.1,21.9,28.11,SE,126,8.3,21.9,32,0.00,,,-99.99,HOBO +U30 +Weather +,2013-03-04 23:30:00,
2013-03-04 15:45:00,43.3,21.0,28.11,SE,139,9.6,24.2,31,0.00,,,-99.99,HOBO +U30 +Weather +,2013-03-04 23:45:00,
2013-03-04 16:00:00,43.5,21.6,28.11,SE,140,7.8,27.7,32,0.00,,,-99.99,HOBO +U30 +Weather +,2013-03-05 00:00:00,
2013-03-04 16:15:00,43.7,21.1,28.11,SE,136,9.6,17.9,32,0.00,,,-99.99,HOBO +U30 +Weather +,2013-03-05 00:15:00,
2013-03-04 16:30:00,43.8,21.2,28.10,SE,131,9.2,19.5,32,0.00,,,-99.99,HOBO +U30 +Weather +,2013-03-05 00:30:00,
2013-03-04 16:45:00,44.0,21.6,28.10,SE,131,7.4,23.7,34,0.00,,,-99.99,HOBO +U30 +Weather +,2013-03-05 00:45:00,
2013-03-04 17:00:00,44.0,22.2,28.10,SE,129,6.7,14.1,35,0.00,,,-99.99,HOBO +U30 +Weather +,2013-03-05 01:00:00,
2013-03-04 17:15:00,44.1,21.9,28.10,SE,128,6.3,28.2,36,0.00,,,-99.99,HOBO +U30 +Weather +,2013-03-05 01:15:00,
2013-03-04 17:30:00,44.2,22.0,28.10,SE,125,6.7,27.7,37,0.00,,,-99.99,HOBO +U30 +Weather +,2013-03-05 01:30:00,
2013-03-04 17:45:00,44.2,22.3,28.09,ESE,115,5.8,29.5,39,0.00,,,-99.99,HOBO +U30 +Weather +,2013-03-05 01:45:00,
2013-03-04 18:00:00,44.2,22.7,28.09,ESE,110,5.4,21.5,42,0.00,,,-99.99,HOBO +U30 +Weather +,2013-03-05 02:00:00,
2013-03-04 18:15:00,44.2,23.4,28.09,ESE,111,5.8,14.1,44,0.00,,,-99.99,HOBO +U30 +Weather +,2013-03-05 02:15:00,
2013-03-04 18:30:00,44.2,23.2,28.09,ESE,115,5.4,21.3,45,0.00,,,-99.99,HOBO +U30 +Weather +,2013-03-05 02:30:00,
2013-03-04 18:45:00,44.1,23.0,28.09,ESE,112,6.7,12.5,45,0.00,,,-99.99,HOBO +U30 +Weather +,2013-03-05 02:45:00,
2013-03-04 19:00:00,44.1,22.8,28.08,ESE,105,6.3,14.1,45,0.00,,,-99.99,HOBO +U30 +Weather +,2013-03-05 03:00:00,
2013-03-04 19:15:00,44.0,22.5,28.09,ESE,108,6.7,29.5,44,0.00,,,-99.99,HOBO +U30 +Weather +,2013-03-05 03:15:00,
2013-03-04 19:30:00,43.9,22.1,28.08,ESE,107,7.4,29.5,43,0.00,,,-99.99,HOBO +U30 +Weather +,2013-03-05 03:30:00,
2013-03-04 19:45:00,43.8,22.0,28.08,ESE,112,7.2,27.7,44,0.00,,,-99.99,HOBO +U30 +Weather +,2013-03-05 03:45:00,
2013-03-04 20:00:00,43.7,21.4,28.07,ESE,117,8.7,31.1,42,0.00,,,-99.99,HOBO +U30 +Weather +,2013-03-05 04:00:00,
2013-03-04 20:15:00,43.6,21.4,28.07,ESE,114,7.4,24.4,42,0.00,,,-99.99,HOBO +U30 +Weather +,2013-03-05 04:15:00,
2013-03-04 20:30:00,43.5,21.0,28.06,ESE,122,8.7,22.4,41,0.00,,,-99.99,HOBO +U30 +Weather +,2013-03-05 04:30:00,
2013-03-04 20:45:00,43.4,21.0,28.07,SE,126,6.7,25.3,41,0.00,,,-99.99,HOBO +U30 +Weather +,2013-03-05 04:45:00,
2013-03-04 21:00:00,43.3,21.3,28.07,SE,142,5.4,19.5,44,0.00,,,-99.99,HOBO +U30 +Weather +,2013-03-05 05:00:00,
2013-03-04 21:15:00,43.2,22.3,28.07,SSE,157,4.3,10.1,50,0.00,,,-99.99,HOBO +U30 +Weather +,2013-03-05 05:15:00,
2013-03-04 21:30:00,43.1,22.5,28.07,SSE,160,4.3,9.2,50,0.00,,,-99.99,HOBO +U30 +Weather +,2013-03-05 05:30:00,
2013-03-04 21:45:00,43.0,22.1,28.07,SE,142,4.3,26.2,49,0.00,,,-99.99,HOBO +U30 +Weather +,2013-03-05 05:45:00,
2013-03-04 22:00:00,42.9,20.6,28.06,SE,132,7.2,23.3,41,0.00,,,-99.99,HOBO +U30 +Weather +,2013-03-05 06:00:00,
2013-03-04 22:15:00,42.8,20.3,28.06,SE,128,6.3,31.5,41,0.00,,,-99.99,HOBO +U30 +Weather +,2013-03-05 06:15:00,
2013-03-04 22:30:00,42.7,20.6,28.06,SE,132,6.3,13.0,43,0.00,,,-99.99,HOBO +U30 +Weather +,2013-03-05 06:30:00,
2013-03-04 22:45:00,42.6,20.9,28.05,SE,133,5.4,17.9,45,0.00,,,-99.99,HOBO +U30 +Weather +,2013-03-05 06:45:00,
2013-03-04 23:00:00,42.5,21.4,28.05,ESE,111,4.9,13.6,46,0.00,,,-99.99,HOBO +U30 +Weather +,2013-03-05 07:00:00,
2013-03-04 23:30:00,42.3,21.5,28.04,SE,136,4.9,19.9,45,0.00,,,-99.99,HOBO +U30 +Weather +,2013-03-05 07:30:00,
2013-03-04 23:45:00,42.3,22.3,28.04,ESE,107,3.8,10.1,50,0.00,,,-99.99,HOBO +U30 +Weather +,2013-03-05 07:45:00,